Location: Gad�tanya
(48.0500°N, 20.8500°E)
Time: 11:09:38
(UTC+00:00)

Cosmos 2344 - Pass Details

Date: 05 July 2020
Orbit: 1249 x 2994 km, 63.3° (Epoch: 14 August)

Event Time Altitude Azimuth Distance (km) Brightness Sun altitude
Exits shadow 22:16:00 12° 223° (SW) 3,095 5.2 -19.1°
Maximum altitude 22:23:04 84° 311° (NW) 1,285 3.6 -19.2°
Drops below altitude 10° 22:31:20 10° 41° (NE) 3,561 6.6 -19.2°
Sets 22:34:31 0° 43° (NE) 4,711 7.3 -19.3°
